Temp
26 26 26 26 26 26 27 27 26 26 26 25 25 25 25 25 24 24 23 23 24 23 24 24 24 24 24 24 24 24 24 24 24 25 24 25 25 25 25 25 25 25 25 25 25 25 25 24 24 24 24 24 24 24 23 23 23 23 23 23 23 24 24
26 26 26 25 26 26 27 27 26 26 26 25 25 25 25 24 24 24 24 24 24 24 24 24 24 24 24 24 24 24 24 24 24 24 24 25 25 25 25 25 25 25 25 25 25 25 25 25 25 24 24 24 24 24 23 23 23 23 23 23 23 23 23
25 26 25 25 25 26 26 26 26 26 26 25 25 25 25 24 24 24 24 24 24 24 24 24 24 24 24 24 24 24 24 24 24 24 24 24 25 25 25 25 25 25 25 25 25 25 25 25 25 25 24 24 24 24 24 23 23 23 23 23 23 23 23
24 25 25 25 25 26 26 26 26 26 26 25 25 25 25 24 24 24 24 24 24 23 24 24 24 24 24 24 24 24 24 24 24 24 24 24 25 25 25 25 25 25 25 25 25 25 25 25 25 25 25 24 24 24 24 24 24 24 24 24 23 24 24
23 23 24 24 25 25 25 26 25 25 25 25 25 25 24 24 24 23 23 23 23 23 23 24 23 23 24 24 24 24 24 24 24 24 24 24 25 25 25 25 25 25 25 25 25 25 25 25 25 25 25 24 24 24 24 24 24 24 24 24 23 23 24
23 23 23 23 23 24 24 25 25 25 25 24 24 24 24 24 24 23 23 23 23 23 23 23 23 23 24 24 24 24 25 25 24 24 24 24 25 25 25 25 25 25 25 25 25 25 25 25 25 25 25 24 24 24 24 24 24 24 24 24 24 24 24
22 22 22 22 22 22 22 23 24 24 24 24 24 24 24 24 24 23 23 23 23 23 23 23 23 24 24 24 24 24 24 24 25 24 24 24 25 25 25 25 25 25 25 25 25 25 25 25 25 25 25 24 24 24 24 24 24 24 24 24 24 24 24
23 22 22 22 22 22 22 22 22 23 24 24 24 24 24 24 24 24 23 23 23 23 23 23 23 24 24 24 24 24 24 24 24 24 24 24 24 24 24 24 25 25 25 25 25 25 25 25 25 25 25 24 24 24 24 25 25 24 24 24 24 24 24
23 23 22 22 22 22 22 22 22 22 23 23 24 24 24 24 24 24 24 23 23 23 23 23 23 24 24 24 24 24 24 24 24 24 24 24 24 24 24 24 24 25 25 25 25 25 25 25 25 25 25 24 24 24 25 25 25 25 25 25 24 24 24
23 23 22 22 22 22 22 22 22 22 22 23 23 23 23 23 24 24 24 24 24 24 24 24 23 23 23 24 23 23 23 23 23 24 24 24 24 24 24 24 24 24 24 24 24 24 25 25 24 24 24 24 24 25 25 25 25 25 25 25 25 24 24
23 23 23 22 22 22 22 22 21 21 22 22 22 23 23 23 23 23 23 23 24 24 24 23 23 23 24 24 24 24 23 23 23 23 23 24 24 24 24 24 24 24 24 24 24 24 24 24 24 24 24 24 25 25 25 25 25 25 25 25 25 25 24
22 22 22 22 21 21 21 21 21 21 21 21 21 22 22 23 23 23 23 23 23 24 24 23 23 23 23 23 24 24 23 23 22 22 23 23 23 24 24 24 24 24 24 24 24 24 24 24 24 24 24 24 25 25 25 25 25 25 25 25 25 25 25
21 20 20 20 21 21 21 21 21 20 20 21 21 21 22 22 22 22 22 22 23 23 23 22 23 23 22 22 22 23 23 22 22 22 22 22 23 23 23 23 23 23 23 23 24 24 24 24 24 24 24 24 24 25 25 25 25 25 25 25 25 25 25
20 20 20 20 20 20 20 20 20 20 20 20 21 21 21 21 21 21 21 22 22 22 22 22 22 23 22 21 21 21 21 21 22 22 22 22 22 22 22 23 23 23 23 23 23 23 24 24 24 24 24 24 24 25 25 25 25 25 25 25 25 25 25
20 20 20 20 20 20 19 19 19 19 19 19 20 20 20 20 21 21 21 21 21 21 21 21 21 21 21 21 20 20 20 21 21 22 21 21 21 21 22 22 22 23 23 23 23 23 23 23 24 24 24 24 24 24 24 24 25 25 25 25 25 25 25
20 20 20 20 20 20 20 20 20 19 19 19 19 19 19 20 20 20 20 20 21 21 21 21 21 21 21 20 20 20 20 20 21 22 21 20 20 21 22 21 21 21 22 22 23 23 23 23 23 23 23 24 24 24 24 24 24 25 25 25 25 25 24
20 20 20 20 20 20 20 20 20 19 19 19 19 19 19 19 20 19 19 20 20 20 20 20 20 20 20 20 20 20 20 20 21 21 20 20 20 21 21 21 20 21 21 22 22 22 23 23 23 23 23 23 23 24 24 24 24 24 25 25 25 25 24
20 20 20 20 20 20 20 20 20 19 19 19 19 18 18 18 18 19 19 19 19 19 20 20 20 20 20 20 19 19 19 19 20 20 19 19 20 20 20 20 20 21 21 21 22 22 22 22 22 22 22 23 23 23 23 23 24 24 25 25 25 25 25
20 20 20 20 20 20 20 20 19 19 18 18 18 17 17 17 17 18 18 18 18 19 19 19 19 19 19 19 19 19 19 19 19 19 19 19 19 20 20 20 20 20 20 21 21 21 21 21 22 22 22 22 22 23 23 23 23 24 24 25 25 25 25
21 21 21 21 20 20 20 20 19 18 18 17 17 17 17 17 17 17 17 17 17 18 18 18 18 18 18 18 19 19 19 19 19 19 19 19 19 19 20 20 20 20 20 20 21 21 20 20 21 21 21 21 22 22 22 22 23 23 23 24 24 25 25
21 21 21 21 20 20 19 19 18 18 18 17 17 17 16 16 16 16 16 17 17 17 17 17 17 17 17 17 18 18 18 18 18 18 18 18 19 19 19 20 20 20 20 20 20 20 20 20 20 21 21 21 21 22 22 21 21 22 22 23 23 24 24
21 21 21 21 20 19 19 19 18 18 18 17 17 17 17 16 16 16 16 16 16 16 16 16 16 16 16 17 17 17 18 18 18 18 18 18 18 18 19 19 19 19 20 20 20 20 20 20 20 20 21 20 21 21 21 21 21 21 21 22 22 23 23
21 21 21 20 20 19 18 18 18 18 17 17 17 17 17 16 16 16 16 16 16 16 16 16 16 16 16 16 16 17 17 17 18 18 18 18 18 18 18 19 19 19 19 19 19 19 19 20 20 20 20 20 20 20 20 20 20 21 21 21 22 22 22
21 20 20 20 19 19 18 18 18 18 17 17 17 17 17 17 17 17 16 15 16 16 15 15 15 15 15 16 16 17 17 17 17 18 18 18 18 18 18 18 19 19 18 18 18 19 19 19 20 20 20 20 20 20 20 19 19 20 20 21 21 21 21
20 20 20 19 19 19 18 18 18 18 17 17 16 17 17 17 17 17 16 15 15 15 15 15 15 15 15 15 16 17 17 17 17 17 17 17 17 18 18 18 18 18 18 18 18 18 18 19 19 19 19 19 19 19 19 18 18 19 19 20 20 21 21
19 20 19 19 19 18 18 17 18 18 17 17 16 16 16 17 17 16 15 15 15 15 15 15 15 15 15 16 16 16 16 16 17 17 17 17 17 18 18 18 18 19 19 18 18 18 18 19 19 19 18 18 18 18 18 18 18 18 19 19 20 20 20
18 19 19 18 18 17 17 17 17 17 16 16 16 16 17 17 16 16 15 15 15 15 15 15 15 15 15 16 16 15 15 16 16 16 17 17 17 18 18 18 18 18 18 18 18 18 18 18 18 18 17 17 18 18 18 18 18 18 18 19 19 19 19
18 18 18 17 17 17 17 17 17 17 16 16 16 17 17 17 16 15 15 15 15 14 15 15 15 15 15 15 15 15 15 16 16 16 16 17 17 17 17 17 18 18 18 18 18 18 18 17 17 18 17 17 17 17 17 17 17 18 18 18 18 19 19
18 18 17 17 17 17 17 16 16 16 16 16 16 16 17 16 16 15 15 14 14 15 15 15 15 15 15 15 15 15 15 15 15 16 16 16 16 17 17 17 17 17 18 18 18 18 18 17 17 18 18 17 17 17 17 16 16 17 17 17 17 18 18
17 17 17 17 17 17 17 16 15 15 15 16 16 16 16 16 15 14 14 14 14 15 15 15 15 15 14 14 14 14 14 14 15 15 15 15 15 16 16 16 16 16 17 17 17 17 17 17 17 17 17 18 17 16 17 17 17 16 16 17 17 17 17
16 16 17 17 16 16 16 16 15 15 15 15 15 16 16 16 15 14 14 14 14 14 14 14 14 14 14 13 14 14 14 14 14 14 14 14 14 15 15 15 15 15 15 15 16 16 16 16 16 16 17 17 16 16 16 16 16 16 16 17 17 17 17
15 15 15 16 15 15 15 15 15 15 14 14 15 15 15 15 15 14 14 14 14 14 14 14 14 13 13 13 13 13 13 13 13 13 13 13 14 14 14 14 14 14 14 15 15 15 15 15 16 16 16 16 15 15 15 15 15 15 16 17 17 17 17
15 15 15 15 15 15 16 16 15 15 14 14 14 14 14 14 14 14 14 14 14 14 14 14 13 13 13 13 13 13 13 13 13 13 13 13 13 13 13 13 14 14 14 14 15 15 15 15 15 15 15 15 15 14 15 15 15 15 15 15 16 16 16
15 14 14 14 15 15 15 15 15 15 14 14 14 14 14 13 13 13 13 13 13 13 14 13 13 13 13 13 13 13 13 13 13 13 13 13 13 13 13 13 13 14 14 14 14 14 14 15 14 14 14 14 14 14 15 15 15 14 14 14 14 15 15
14 14 14 14 15 15 15 15 15 14 14 13 13 13 13 13 13 13 13 13 13 13 13 13 12 13 13 13 13 13 13 13 12 12 12 12 12 12 12 12 12 13 13 12 12 12 13 13 13 13 13 13 14 13 14 15 14 13 13 13 13 13 14
14 14 14 15 15 15 15 15 14 14 14 13 13 13 14 13 13 13 13 13 13 12 12 12 12 12 12 13 13 12 12 12 12 12 12 12 12 12 12 12 12 12 12 12 12 12 12 12 12 12 12 13 13 12 13 13 13 12 12 13 13 13 13
15 14 14 14 14 15 15 14 14 14 14 14 13 13 14 13 13 13 13 12 12 12 12 12 12 12 12 12 12 12 12 12 12 11 11 11 11 11 12 12 12 12 12 12 12 12 12 12 11 11 11 12 12 12 12 12 12 12 12 12 12 13 13
15 15 14 14 15 15 15 14 14 14 14 14 13 14 14 14 14 13 13 13 12 12 12 12 12 12 12 12 12 11 11 11 11 11 11 11 11 11 11 12 12 12 11 11 11 11 11 11 11 11 11 11 12 12 12 12 12 12 13 13 13 13 13
Height
811 813 814 816 817 819 820 823 825 828 830 832 834 836 838 840 842 843 846 848 850 853 855 858 860 861 862 864 866 867 869 870 871 873 874 875 876 877 878 879 880 881 882 883 884 884 885 886 886 887 887 888 888 889 889 890 890 891 891 892 892 893 893
811 812 813 815 817 818 819 821 824 826 828 830 832 834 836 838 840 842 844 847 849 851 853 856 858 860 861 863 864 866 867 869 870 872 873 874 876 877 877 879 879 880 881 882 883 884 884 885 885 886 887 887 888 888 889 889 890 890 891 891 892 892 893
812 812 812 815 815 816 818 820 823 825 826 829 830 832 834 836 838 840 842 845 847 850 852 854 856 858 860 862 863 864 866 867 869 871 872 874 875 876 877 877 878 879 880 881 882 883 883 884 884 885 886 887 887 888 888 889 889 890 890 891 891 892 892
812 812 812 814 814 816 818 819 822 823 825 827 829 830 832 834 837 839 842 844 846 848 850 853 855 857 859 860 862 863 864 866 867 869 871 872 874 875 876 877 877 878 879 880 881 882 882 883 883 884 885 886 887 887 887 888 888 889 889 890 890 891 891
812 812 813 814 814 816 817 819 821 822 824 826 828 830 831 834 837 839 841 843 845 847 849 851 854 856 858 859 861 862 863 864 866 868 870 871 873 874 875 876 877 878 879 879 880 881 881 882 882 883 884 885 886 886 887 887 888 888 888 889 890 890 890
811 812 813 814 815 816 816 819 821 822 824 825 827 830 831 833 836 838 841 842 844 846 848 850 853 854 856 858 860 861 862 864 865 867 869 870 871 873 873 875 876 877 878 878 879 880 880 881 882 882 883 884 885 885 886 886 887 887 888 888 889 889 889
809 812 813 815 816 817 818 820 821 822 824 825 827 829 830 833 835 837 839 841 842 845 846 849 851 852 854 856 858 859 861 862 864 865 867 868 870 871 872 873 874 876 877 877 878 878 879 880 881 881 882 883 884 884 885 886 886 886 887 887 887 888 888
808 811 813 815 816 817 819 820 821 822 823 825 826 827 829 832 833 835 837 838 841 843 845 847 848 850 853 854 856 858 859 861 863 864 865 867 868 870 871 872 873 874 875 876 877 877 878 879 879 880 881 882 883 883 884 885 885 885 886 886 886 887 887
807 810 813 815 815 817 818 819 820 821 823 824 825 826 828 830 831 833 834 836 838 841 842 844 846 849 851 853 855 857 859 860 861 863 864 866 867 869 870 871 871 872 873 875 875 876 876 878 878 879 880 880 881 882 883 883 884 884 885 885 885 885 886
808 810 812 814 814 816 817 818 819 820 822 824 824 825 827 828 830 831 833 834 835 837 839 842 844 847 849 851 853 855 857 859 861 862 863 865 866 868 869 870 870 871 872 873 874 875 875 876 877 878 878 879 880 880 881 882 882 883 883 884 884 884 885
808 809 811 813 814 816 817 818 819 819 821 822 824 825 826 827 829 830 832 834 834 835 837 840 843 845 846 848 850 852 854 857 860 861 862 863 865 866 868 869 870 870 871 872 873 874 874 875 875 876 877 877 878 879 879 880 881 881 882 882 883 883 884
809 810 812 814 815 816 817 817 819 820 821 823 823 824 825 826 827 828 831 833 834 834 836 839 843 845 847 849 850 851 853 855 858 860 861 862 863 864 865 867 868 869 869 870 871 872 873 873 874 874 875 876 876 877 878 878 879 880 880 881 881 882 882
812 813 814 815 816 817 818 819 821 822 824 824 824 824 825 825 826 828 830 831 833 834 836 840 843 845 848 851 851 851 852 854 856 858 860 861 861 862 864 865 866 867 867 868 869 870 871 872 872 872 873 874 875 875 876 876 877 878 878 879 880 880 881
814 815 816 816 817 818 820 822 824 824 825 825 825 825 825 826 828 829 830 831 832 835 837 839 841 842 845 848 850 851 852 853 855 857 858 859 860 861 862 863 865 865 866 866 867 868 869 870 870 871 871 872 873 873 874 874 875 876 876 877 878 878 879
815 816 817 818 818 820 822 823 824 825 825 825 825 825 825 826 828 829 831 832 833 835 836 838 839 840 842 845 848 851 852 852 853 855 857 860 860 860 860 862 864 864 864 864 865 866 867 868 868 869 869 870 871 872 872 872 873 874 874 875 876 876 877
817 818 819 819 819 820 822 823 823 825 825 825 825 825 825 826 827 830 832 832 833 834 835 836 836 837 839 841 843 846 847 848 850 852 854 857 859 857 857 859 862 863 863 862 862 863 864 865 866 867 868 868 869 870 870 871 871 871 872 873 873 874 875
818 819 819 819 820 821 822 824 825 825 825 825 826 826 827 827 827 830 830 830 831 832 833 834 835 836 837 839 841 843 844 845 846 849 851 853 854 853 853 856 859 862 862 861 861 861 862 863 864 864 865 866 867 868 869 869 869 869 870 870 871 871 872
819 820 819 820 821 821 822 824 826 826 826 826 826 827 828 828 828 829 829 830 831 832 832 833 834 835 837 839 841 842 844 845 846 847 849 850 851 851 852 854 857 859 860 860 859 859 860 861 862 862 863 864 865 867 867 867 867 867 868 868 868 869 869
820 820 820 820 821 822 823 824 826 827 827 827 827 828 829 829 829 829 829 830 831 832 833 833 834 835 836 838 840 842 844 845 845 846 847 849 850 851 852 853 856 857 858 858 858 858 858 860 860 860 862 863 865 866 866 866 865 865 866 865 866 866 867
820 820 820 821 822 823 824 826 827 828 828 828 829 829 830 830 831 831 832 832 832 833 834 835 835 836 836 838 840 841 842 843 844 845 847 847 849 850 851 852 854 856 857 856 856 856 857 858 858 858 860 862 864 865 865 864 864 864 864 864 864 864 864
820 820 821 822 823 825 826 827 829 829 829 830 831 832 832 832 833 834 834 835 835 836 836 837 837 838 839 840 841 841 841 842 843 845 846 846 847 849 850 851 853 855 855 855 855 855 855 856 856 856 857 860 862 865 865 864 863 863 863 862 862 862 862
821 821 822 823 824 826 828 829 830 830 831 831 832 833 834 835 836 836 837 837 838 839 840 840 840 841 842 842 843 843 843 844 845 846 846 846 847 848 849 851 853 854 854 854 854 854 854 854 855 855 856 858 861 864 864 863 863 863 862 861 861 861 861
823 823 823 825 826 828 830 831 832 832 833 833 834 835 836 838 838 838 839 839 840 842 843 843 843 844 844 845 846 846 846 846 847 847 847 846 846 847 849 850 851 853 853 854 854 853 854 854 854 855 856 858 861 862 863 863 862 861 861 860 860 860 860
825 826 826 827 829 830 832 833 834 835 835 835 836 838 838 839 840 840 841 842 842 844 845 846 846 847 847 848 849 849 849 849 849 848 848 848 848 849 849 850 851 852 853 853 854 854 854 854 855 856 857 859 860 861 862 862 861 860 859 859 859 859 859
828 829 830 830 831 832 834 835 835 837 838 838 839 840 840 841 841 841 843 845 846 846 847 849 850 850 850 851 852 851 851 851 851 851 851 852 851 851 851 851 852 852 852 853 854 854 855 855 856 857 858 859 860 860 861 861 859 859 858 858 858 858 858
831 832 832 833 834 834 835 837 837 839 840 841 842 842 842 842 842 842 844 846 848 849 850 852 853 853 852 852 852 854 854 854 854 854 854 853 853 852 852 852 853 853 853 853 854 854 855 855 857 857 858 859 860 860 860 860 859 859 858 857 857 857 857
834 835 835 835 836 836 837 838 839 840 842 843 843 844 844 843 843 844 845 846 848 850 852 853 853 854 853 852 852 855 856 855 855 855 855 854 853 853 853 853 853 853 853 853 854 854 855 857 858 859 859 860 860 860 860 860 859 858 857 857 857 856 856
835 836 838 838 838 838 838 840 842 842 844 845 845 846 845 845 845 846 847 847 849 851 852 853 854 853 853 852 854 856 857 856 855 855 855 855 854 854 854 854 854 854 854 854 855 855 856 858 859 860 860 861 860 860 860 860 860 859 858 857 857 856 856
837 838 839 840 841 841 840 842 844 844 845 846 846 847 847 846 847 848 849 849 850 852 852 853 853 853 854 855 856 858 858 857 857 857 857 856 855 855 855 855 856 856 856 856 856 857 858 859 860 861 861 861 861 861 860 860 859 859 858 858 857 857 856
838 840 841 841 842 843 842 843 845 846 847 847 847 848 848 848 849 850 851 852 853 853 853 854 854 855 857 857 858 859 859 858 858 858 858 858 857 857 857 857 857 858 858 858 858 858 859 859 860 861 861 861 861 861 860 860 859 859 858 858 857 857 856
840 841 842 842 843 844 844 845 846 847 848 848 849 849 850 850 850 851 852 854 855 855 855 856 857 857 858 859 859 859 859 859 859 859 859 858 858 858 858 858 858 858 859 859 859 859 859 860 860 860 860 861 861 860 860 860 859 859 858 857 857 856 856
840 841 842 843 844 844 845 846 847 849 849 850 851 851 851 851 852 852 854 855 856 856 857 857 858 858 859 860 860 860 860 860 860 860 859 859 859 859 859 859 859 859 859 859 859 860 860 860 860 860 860 860 860 860 860 859 859 859 858 857 856 855 855
840 841 842 843 844 845 846 847 848 849 850 851 852 852 853 853 853 854 855 856 857 857 858 858 858 859 859 860 860 860 860 860 860 860 860 860 860 860 860 860 860 859 859 859 859 860 860 860 860 860 860 860 860 860 860 859 859 859 858 857 856 855 854
840 841 842 843 845 846 847 848 849 850 850 851 853 853 854 855 855 856 856 857 858 858 858 858 859 859 860 860 860 860 860 860 860 861 861 861 861 861 861 861 861 860 860 860 860 860 860 860 860 860 860 860 860 861 861 860 860 859 858 857 856 855 854
839 841 842 843 844 846 848 849 849 850 851 852 853 854 855 855 856 857 857 857 858 858 858 859 860 860 860 861 861 861 861 861 861 861 861 861 862 862 862 862 861 861 861 861 860 860 860 860 860 860 860 860 860 861 861 861 861 860 859 858 856 855 854
839 840 841 842 843 845 847 849 849 850 852 853 854 855 855 856 856 857 857 858 858 858 859 859 860 861 861 861 862 862 862 862 862 862 862 862 862 862 862 862 861 861 861 861 861 860 860 860 860 860 860 860 860 860 860 860 860 860 859 858 857 856 855
837 838 839 841 842 843 846 849 850 851 852 853 854 855 855 856 856 857 857 858 858 858 859 860 860 861 862 862 863 863 863 863 863 863 863 863 862 862 862 862 862 861 861 861 861 860 860 860 859 859 859 859 859 859 858 858 858 857 857 857 856 856 855
836 837 838 840 841 841 844 847 850 851 852 853 854 854 855 855 856 857 857 858 858 858 859 860 860 861 862 862 863 863 864 864 864 864 864 863 863 863 862 862 862 862 861 861 860 860 860 860 859 859 859 858 858 858 857 857 856 855 854 853 853 853 852
Wind_Speed
13 12 11 9 10 11 13 17 18 17 18 19 19 20 20 19 20 21 22 25 27 26 27 27 27 27 26 25 24 22 22 21 20 18 16 14 12 11 11 11 11 10 9 9 7 7 8 7 7 7 6 6 5 5 4 4 5 5 5 5 5 4 4
11 11 10 9 10 11 13 17 17 18 19 19 19 20 19 19 21 24 24 26 28 27 28 28 27 27 26 26 25 24 23 22 21 20 18 16 14 12 12 11 12 11 10 8 7 6 7 7 8 8 7 6 5 5 4 4 5 5 5 5 5 5 5
9 9 9 9 9 9 12 15 16 17 18 19 19 19 20 22 25 28 28 28 28 27 27 28 28 28 27 27 27 25 24 23 22 21 19 17 15 13 12 11 12 12 11 9 7 6 5 6 7 8 7 7 6 5 4 4 5 5 5 5 5 5 6
8 8 9 8 8 9 11 14 15 16 17 18 19 20 23 26 26 26 25 25 26 26 27 28 28 27 28 28 28 26 25 24 23 21 20 18 16 13 12 12 12 13 12 11 9 7 5 5 6 7 7 7 6 5 4 4 5 5 5 5 5 6 6
8 8 7 7 7 7 9 12 14 15 16 17 18 18 19 21 20 20 20 21 23 23 25 26 25 25 27 27 26 26 25 23 22 22 21 19 16 14 13 13 12 13 12 11 9 8 7 6 6 7 7 7 7 6 5 5 5 6 6 6 6 6 6
9 8 6 5 5 5 5 8 10 13 14 16 18 18 17 17 17 16 18 19 21 22 23 24 23 24 27 26 25 26 25 23 22 22 22 20 17 15 14 14 13 12 12 11 10 9 8 8 7 7 7 7 7 6 6 6 7 7 7 7 7 7 6
9 8 8 6 5 5 4 5 7 9 12 15 18 19 19 18 16 16 17 19 22 22 21 22 23 25 27 26 26 26 24 23 22 22 22 21 18 16 15 15 14 13 12 11 10 9 8 8 8 7 7 8 8 7 7 7 7 8 8 8 8 8 7
9 8 8 7 6 6 6 6 7 8 11 14 17 19 21 20 20 20 21 20 20 19 19 21 24 26 26 25 26 25 24 23 22 21 22 21 19 18 17 16 16 15 14 13 11 9 8 8 8 8 7 8 8 8 8 7 7 8 8 9 9 8 7
7 7 8 7 7 9 10 10 10 10 12 13 15 19 20 20 21 24 24 23 22 20 21 23 23 23 23 23 22 22 22 22 22 21 22 21 19 18 16 15 16 17 16 13 11 10 9 8 8 8 7 7 8 8 9 9 9 9 9 9 9 9 8
7 7 8 8 7 8 10 10 10 12 15 14 14 17 18 19 22 23 24 25 25 25 25 24 22 21 20 20 18 16 16 18 20 21 21 21 20 19 16 14 14 16 16 14 11 10 10 9 8 8 8 8 8 8 9 10 10 10 10 10 10 10 10
9 8 9 9 8 8 9 10 10 11 14 15 13 15 18 19 21 21 22 24 26 27 26 23 20 20 20 20 18 16 15 16 18 20 20 21 21 20 18 15 13 14 14 14 12 11 10 10 10 10 10 10 10 9 10 10 11 11 11 11 11 11 11
8 8 9 10 10 9 9 9 8 7 10 13 14 17 21 22 24 25 25 26 27 26 25 21 18 17 17 16 16 16 16 15 15 18 19 20 20 20 19 15 13 13 13 13 13 12 12 12 12 12 12 12 12 11 11 11 11 12 12 12 12 12 12
8 8 8 8 8 8 7 7 6 4 4 8 12 15 17 19 21 22 23 25 25 23 21 18 17 17 16 18 20 19 17 15 14 14 16 17 18 18 18 16 13 12 11 12 13 13 12 12 12 12 13 12 12 12 11 11 12 12 12 12 12 13 14
9 9 8 7 7 7 7 6 5 4 3 4 7 10 10 10 13 14 14 17 18 16 14 15 18 20 18 20 23 20 15 14 14 14 15 16 16 15 15 15 15 14 13 12 12 11 11 10 10 10 10 10 11 11 10 10 11 12 12 12 12 13 14
10 10 9 8 7 7 7 5 5 5 3 2 3 5 6 8 10 9 7 8 10 10 10 12 15 17 17 18 21 19 16 15 16 17 18 17 16 14 13 13 15 16 16 15 12 11 10 10 9 9 8 9 10 10 9 10 10 11 11 11 12 13 13
11 10 9 8 7 7 8 7 6 6 5 4 3 3 5 7 8 5 5 6 9 10 11 14 16 17 18 18 20 20 18 18 18 20 20 19 18 18 16 14 12 13 15 16 16 15 14 13 12 10 9 9 9 9 9 9 10 12 12 11 12 12 12
10 9 7 6 6 7 8 8 8 7 7 6 4 4 3 2 3 7 7 8 10 11 11 14 15 16 16 15 15 16 17 18 19 20 21 21 21 21 19 16 14 14 15 15 16 16 14 14 12 11 10 10 10 9 8 8 10 13 13 13 13 13 13
9 7 6 6 6 8 9 9 9 8 8 7 7 7 6 7 10 11 9 7 8 9 9 10 10 10 11 11 13 15 16 17 17 18 19 20 18 17 17 15 13 14 14 14 14 13 10 9 9 9 8 8 9 8 6 7 11 13 13 14 14 15 15
9 8 7 6 6 8 9 9 10 9 9 10 10 11 11 12 14 13 12 11 10 11 11 10 8 8 7 8 10 12 15 16 17 18 18 16 14 13 13 13 11 10 10 9 8 8 7 5 5 5 5 5 5 4 3 6 10 11 11 12 13 15 16
10 9 8 7 7 8 9 10 11 11 12 13 14 15 18 19 18 18 18 18 17 17 17 16 15 14 14 12 11 10 10 10 11 12 12 13 15 15 13 13 11 9 8 7 7 7 7 6 5 4 3 3 4 3 3 5 8 7 8 9 10 11 13
8 9 8 7 7 9 10 11 12 12 13 14 15 16 19 20 20 20 20 21 22 22 22 22 22 21 20 19 17 16 14 12 12 13 13 14 17 17 15 14 12 11 10 9 7 7 6 6 6 5 3 2 3 4 4 4 4 4 5 6 6 7 8
7 8 8 7 9 10 11 12 13 13 14 17 19 19 19 20 21 22 22 22 24 23 23 24 24 23 22 21 19 18 16 14 13 14 14 15 16 16 15 14 12 11 10 10 8 6 5 5 5 5 4 3 3 4 4 3 2 1 1 3 4 4 4
7 8 9 9 10 12 13 14 16 17 18 21 25 25 25 25 25 25 25 26 25 24 23 23 22 22 22 22 21 19 16 14 13 13 12 12 13 13 12 11 10 9 8 8 8 8 6 6 5 5 4 4 4 3 2 1 2 3 3 3 3 3 2
8 9 10 12 13 14 14 14 17 19 21 25 27 26 24 24 24 25 25 25 24 24 23 22 20 19 20 19 19 19 17 16 15 14 12 11 11 11 11 9 8 7 6 5 6 7 6 5 5 5 4 3 3 2 2 1 2 4 4 4 4 3 2
8 9 10 11 13 14 14 14 16 18 20 22 23 22 21 20 20 22 22 21 20 20 21 20 19 19 19 18 17 18 19 18 17 17 15 13 12 12 11 10 9 8 8 7 6 6 6 5 5 5 5 4 3 3 4 3 2 1 1 2 3 3 2
7 9 10 11 12 14 15 15 16 16 16 16 17 18 21 22 23 22 20 17 16 16 16 17 15 15 17 19 19 19 19 18 17 17 16 15 15 14 13 12 11 11 11 10 9 8 8 7 8 8 7 6 6 5 6 6 5 4 2 2 2 1 2
8 8 10 11 13 15 16 15 15 15 15 16 17 19 21 23 24 23 20 18 17 16 15 17 17 15 15 17 18 18 17 17 16 17 16 16 15 15 14 14 13 13 13 12 10 11 11 11 10 10 10 10 10 9 9 8 7 6 6 6 5 5 5
8 8 9 11 13 16 17 15 15 16 15 15 17 18 18 21 23 23 22 21 19 17 16 16 17 17 16 16 15 16 16 16 15 15 14 14 14 14 14 14 14 14 14 13 13 13 14 13 11 10 11 12 12 12 11 9 7 6 7 7 7 6 6
8 9 10 11 11 14 17 16 14 14 13 12 13 13 14 18 21 21 21 21 18 16 15 14 15 16 17 16 15 15 14 15 14 13 13 12 12 12 12 12 12 13 13 13 13 13 13 13 11 9 9 10 11 11 12 11 9 8 8 8 8 7 6
7 8 10 10 10 12 15 17 15 14 13 13 13 12 12 15 18 19 19 19 17 15 14 14 14 15 15 15 14 14 13 13 13 12 12 12 11 11 11 11 10 11 11 11 10 10 9 9 8 7 7 7 8 9 10 11 10 10 10 10 9 8 7
7 7 9 10 11 12 14 15 15 15 15 14 13 13 13 14 17 19 19 17 15 14 14 13 13 14 13 13 12 12 11 12 12 12 11 11 10 10 10 9 9 9 9 9 9 8 7 7 6 6 6 6 7 8 8 8 8 8 8 9 9 9 8
10 10 10 10 12 13 13 14 14 14 15 15 14 14 14 14 16 18 17 15 13 12 12 12 12 12 12 11 10 10 10 10 10 10 10 10 10 9 9 9 8 7 7 7 7 7 6 5 5 5 5 5 6 6 7 8 7 7 8 9 9 10 9
11 11 12 13 14 14 13 12 12 12 13 14 13 14 15 16 16 17 15 13 11 10 9 10 10 10 10 9 9 8 8 8 8 8 8 9 8 7 8 8 7 7 7 6 6 6 5 5 5 5 5 5 6 6 6 6 7 9 10 11 11 12 12
12 12 13 15 16 15 13 11 11 11 12 13 13 13 15 15 15 14 12 11 9 7 7 8 8 8 7 7 6 7 7 7 7 7 7 8 7 7 7 7 6 6 6 6 6 5 5 4 4 4 5 5 5 5 5 5 6 9 11 12 13 13 13
14 14 16 18 17 14 12 12 12 12 12 13 12 12 12 12 12 10 10 9 8 7 7 8 7 7 6 5 5 6 6 6 6 6 6 6 6 6 6 6 5 4 4 5 4 4 3 3 3 4 4 4 4 4 4 4 5 7 8 9 10 11 11
15 16 18 18 17 14 12 11 12 13 13 13 12 11 10 10 9 9 8 8 8 7 8 7 6 6 5 5 4 5 5 5 5 6 6 5 5 5 5 5 4 4 3 3 3 3 3 3 3 3 3 3 4 4 3 4 4 5 5 5 7 8 9
18 18 18 18 18 16 12 11 11 12 13 13 11 9 8 8 7 7 7 6 7 7 7 6 5 5 5 5 4 4 4 4 4 4 4 4 4 3 3 3 3 3 3 3 3 3 3 3 3 3 3 3 4 4 3 3 4 4 5 5 5 6 7
17 18 18 19 19 18 16 15 15 14 14 14 12 10 8 7 5 4 4 4 4 5 6 6 5 4 4 3 3 3 2 2 2 2 2 3 3 2 2 2 2 2 3 3 3 4 4 5 4 3 2 2 3 4 4 4 5 6 8 8 8 8 9
Wind_Direction
186 185 188 184 182 187 191 192 192 192 192 194 196 198 197 195 195 196 197 201 203 205 208 210 210 211 213 214 215 217 218 218 222 225 228 232 236 242 248 249 246 238 232 234 241 247 251 249 242 243 246 250 256 257 259 256 249 251 252 254 259 262 267
187 186 185 183 185 189 191 191 191 192 193 195 196 197 196 196 199 200 202 206 207 207 210 210 212 213 214 215 216 218 220 223 226 229 229 232 236 242 247 247 240 237 235 236 245 260 264 259 250 248 252 257 260 259 260 258 252 253 254 260 270 274 274
184 181 176 178 184 185 188 188 190 194 195 195 195 196 198 202 206 206 207 209 208 209 211 212 213 215 215 217 218 220 223 226 228 228 228 230 234 240 246 242 232 233 238 238 245 263 271 264 249 245 251 257 259 261 261 257 252 248 247 257 271 275 275
170 164 161 168 177 183 186 187 190 194 194 196 196 198 202 205 207 207 206 207 207 207 210 212 213 214 216 219 220 223 225 227 229 227 225 228 232 236 240 237 231 232 237 237 241 250 250 247 240 239 246 253 257 261 260 256 248 240 242 253 265 273 274
165 155 146 153 163 173 183 186 190 193 192 195 197 198 202 202 201 202 203 206 207 207 210 212 211 212 217 219 220 225 228 229 229 227 226 229 232 233 234 234 233 234 236 238 245 247 237 230 233 236 241 248 254 259 257 252 247 244 249 255 262 269 271
165 155 148 151 147 137 152 170 182 190 192 195 198 200 200 197 195 197 200 206 208 207 209 211 211 213 218 220 222 227 231 231 230 229 229 231 232 232 233 234 234 236 239 243 250 251 239 232 233 236 240 245 250 253 255 254 249 249 254 258 261 262 260
162 159 166 168 150 122 121 142 163 184 193 196 200 203 202 198 194 193 198 206 210 210 208 210 213 217 219 221 224 228 231 232 232 230 229 231 233 231 231 233 236 238 244 250 253 250 242 240 241 241 244 248 252 253 258 261 257 256 258 258 260 262 261
167 165 175 174 161 155 158 158 157 173 188 192 195 200 202 200 198 200 204 206 207 205 206 210 215 220 221 223 226 229 232 234 234 233 229 229 233 232 231 234 237 242 247 251 251 244 241 244 245 247 249 252 257 262 264 265 263 263 263 261 260 257 253
156 146 159 162 159 162 164 163 159 169 187 194 193 195 199 199 201 206 208 207 205 204 210 215 217 220 221 222 225 229 233 236 237 235 232 230 231 232 232 234 238 244 246 245 243 239 239 243 245 250 256 255 258 262 266 270 271 270 268 264 260 254 248
154 137 142 144 146 153 156 159 160 168 184 194 193 192 197 199 201 204 205 208 209 210 214 215 212 214 216 217 223 229 236 241 241 239 235 233 233 235 236 237 240 246 244 239 237 236 237 241 244 249 256 258 258 258 264 272 275 274 272 267 263 258 255
161 150 146 145 146 147 151 161 166 170 180 184 183 189 200 203 200 204 211 214 214 215 215 211 206 208 212 216 221 229 239 246 245 243 241 238 239 239 240 242 244 246 242 236 235 237 240 244 248 252 255 258 260 260 265 272 275 275 274 271 270 267 261
146 140 140 140 141 143 147 158 161 162 172 177 180 190 200 203 203 209 215 216 216 215 210 203 201 207 216 226 233 236 241 244 243 243 243 242 242 241 240 241 243 244 240 235 236 239 242 246 248 253 256 257 260 262 264 269 273 275 275 273 272 271 267
123 120 123 127 132 137 133 130 133 145 175 183 190 198 202 203 202 202 205 207 210 211 204 200 211 222 231 242 244 239 235 235 236 239 240 240 241 243 242 241 241 241 238 237 239 240 241 243 247 254 259 258 259 262 262 264 269 274 278 277 274 273 272
120 121 123 126 134 130 115 110 125 149 185 192 195 206 212 209 200 195 199 205 208 206 198 199 215 224 227 232 236 233 229 228 231 235 240 240 238 239 241 241 240 239 237 237 239 239 239 241 244 250 254 254 258 261 260 262 266 271 277 280 279 276 275
129 133 132 136 143 130 124 138 147 143 147 151 167 193 210 217 213 202 196 205 209 208 199 194 203 212 212 216 222 225 225 227 231 237 245 248 243 234 230 236 239 237 235 232 230 233 236 237 240 242 244 250 257 259 257 258 261 266 273 279 281 280 277
134 138 138 140 138 126 132 147 147 140 137 129 126 151 190 218 223 194 148 169 192 191 187 186 189 195 200 206 212 215 218 224 230 234 237 241 241 234 227 230 237 235 232 228 226 229 232 234 238 241 243 248 253 256 257 256 256 262 266 268 272 274 272
134 136 136 134 122 117 126 129 130 132 125 113 106 109 130 158 152 144 147 171 186 181 179 184 187 191 194 195 199 207 215 224 229 229 228 228 232 231 226 225 230 234 232 228 225 227 231 235 239 242 244 247 249 253 254 252 254 259 262 260 259 260 261
133 133 133 130 118 118 124 119 115 118 111 100 89 77 74 84 100 120 141 155 160 165 172 181 186 191 194 189 191 201 210 218 221 217 216 219 222 223 219 216 220 227 229 228 227 224 224 229 235 241 247 248 249 250 247 249 257 262 263 261 258 255 256
136 137 137 131 114 109 113 109 106 104 96 88 79 72 76 87 96 106 117 116 117 126 135 141 148 155 165 172 181 193 204 212 215 212 211 212 210 206 203 199 201 208 211 214 214 208 204 206 212 224 237 244 247 239 224 246 260 265 265 263 260 256 254
142 143 138 131 116 103 101 104 105 100 91 85 81 82 89 96 98 100 104 106 110 116 119 119 118 119 119 122 128 141 161 176 182 184 187 186 181 179 180 179 181 186 182 176 176 182 185 183 183 192 204 235 246 223 205 236 252 259 261 261 261 257 252
145 146 143 131 117 105 101 104 104 99 94 91 88 88 91 95 97 96 93 96 101 104 107 107 105 104 104 105 107 109 113 115 119 127 135 143 149 152 154 158 161 163 160 161 170 183 190 191 191 191 186 205 229 216 208 221 233 244 254 254 253 252 249
144 146 141 128 114 109 107 108 105 102 99 98 97 95 92 92 94 92 88 89 90 90 92 95 95 92 92 93 94 98 104 108 110 115 121 126 131 135 139 144 147 147 148 154 161 170 186 193 184 175 176 178 188 198 204 215 231 260 260 241 235 235 239
126 124 120 114 108 106 106 106 107 105 102 100 100 100 100 99 97 93 89 87 85 82 80 82 84 84 84 86 89 94 98 102 103 107 115 118 118 120 126 135 141 142 140 142 146 151 166 179 175 175 187 194 202 207 193 211 277 270 260 243 221 201 199
110 110 110 112 112 110 108 108 110 110 108 106 105 105 107 106 102 95 89 85 83 81 74 69 72 79 81 82 89 96 99 100 101 105 110 109 105 106 111 117 126 134 133 127 129 132 138 148 155 158 158 165 191 194 133 67 301 269 265 264 248 234 228
105 110 113 117 119 116 111 109 111 112 111 110 111 113 113 111 107 102 94 88 86 84 77 71 70 77 83 84 86 93 97 100 103 107 110 108 104 105 106 105 108 117 120 116 114 118 123 129 130 124 117 118 123 125 120 98 52 18 329 303 284 270 268
112 119 119 117 118 115 112 110 108 107 106 107 111 115 113 110 108 105 101 97 93 88 86 87 85 84 88 88 85 86 89 91 94 98 101 100 97 96 98 100 103 109 111 109 106 107 111 113 112 108 108 113 117 117 118 109 91 76 63 45 48 64 101
124 121 118 117 119 119 116 112 107 105 106 109 113 114 111 108 104 101 100 97 92 90 95 102 104 102 96 90 86 84 87 90 90 89 90 92 92 91 91 92 96 100 100 99 102 108 111 109 105 101 98 99 103 106 109 112 105 89 75 74 78 85 90
124 113 110 113 120 122 117 111 108 108 109 112 113 111 109 107 104 103 101 97 95 97 100 100 100 99 96 94 90 87 86 89 90 87 84 84 87 88 86 84 88 93 94 96 101 106 109 108 103 99 94 88 87 94 101 104 100 86 72 65 65 70 77
129 120 116 114 118 121 117 110 105 104 105 107 108 107 108 107 106 105 104 103 103 104 101 99 98 96 93 92 91 86 81 80 83 84 80 77 80 82 80 78 81 86 91 96 98 97 98 100 100 100 98 89 80 84 92 90 80 72 67 59 53 54 60
124 126 127 119 115 117 116 113 107 103 105 109 109 107 108 108 107 106 105 107 110 109 104 102 101 97 92 88 84 81 77 74 74 75 73 71 74 76 74 73 73 77 82 86 87 86 83 82 84 87 90 88 76 72 81 85 73 61 57 56 54 54 53
128 130 127 120 117 117 115 114 111 107 105 109 112 111 111 112 111 108 108 111 113 111 107 104 99 93 89 84 81 79 76 74 71 68 66 66 67 67 67 64 63 64 68 70 72 71 63 54 55 59 63 68 65 59 64 72 65 47 36 31 33 36 36
137 136 129 125 125 124 120 116 114 110 107 108 110 111 112 115 113 110 111 113 110 105 103 100 96 92 88 85 83 81 78 75 70 65 63 60 59 59 56 54 52 50 51 54 57 58 56 45 38 40 43 45 47 43 42 47 46 32 14 5 4 4 359
145 145 142 140 141 139 134 126 119 114 111 108 108 108 110 111 112 112 113 111 105 100 97 93 91 91 88 85 82 78 75 72 67 63 59 54 51 50 47 43 43 42 40 40 40 41 46 44 33 31 31 29 28 29 29 31 31 20 8 1 357 353 349
149 148 143 143 146 146 141 132 126 123 119 116 115 115 112 110 112 113 113 111 109 105 97 92 90 88 84 79 74 70 66 62 59 56 53 49 45 44 43 39 38 41 39 35 30 25 26 33 36 30 21 16 17 20 27 37 32 18 8 1 357 354 351
153 151 148 148 150 151 150 145 140 136 132 129 129 125 119 116 115 115 114 115 116 113 106 101 94 85 78 72 68 67 61 56 55 52 49 47 44 45 46 43 47 58 50 39 44 45 34 31 33 25 15 13 15 17 22 29 25 17 10 3 356 353 351
155 153 154 156 154 155 161 163 156 149 144 143 144 138 130 125 120 118 118 117 114 113 110 105 96 86 77 70 67 67 60 54 54 51 48 45 42 42 40 38 50 76 79 68 76 88 83 75 63 41 26 16 12 13 18 15 8 8 10 3 352 347 345
163 160 162 164 160 157 164 174 173 166 161 159 158 151 143 138 129 121 119 115 112 111 108 102 94 86 77 71 71 70 62 53 52 49 44 38 34 31 28 23 30 51 68 75 86 98 106 111 106 84 61 34 9 357 356 356 348 340 339 337 333 334 334
168 166 167 169 167 167 175 186 188 184 179 175 173 170 166 161 154 142 133 123 115 110 102 96 92 87 79 75 74 70 56 46 42 34 25 22 21 19 16 6 357 358 8 27 60 96 114 123 120 107 84 45 13 357 347 337 322 313 310 308 311 316 317